STARLINK-35702, 66876

Orbit data source: Space-Track

STARLINK-35702, 66876 is a payload satellite owned by SpaceX/Seattle (US) in LEO that was launched on Tue, 02 Dec 2025 UTC via an FALCON 9 launch vehicle from the Air Force Eastern Test Range (AFETR). Payload-class satellites include a variety of spacecraft equipped with specific instruments for various scientific and technological missions. These include communications satellites like Starlink; space stations such as the ISS; scientific satellites like the Hubble; Earth observation satellites from companies like Planet Labs, Umbra, and HawkEye 360; GPS; miniature CubeSats for education and research; and military/defense satellites.

Loading next visibility...
Identifier
66876, 2025-281AE
Orbit
LEO
Country
Flag of USUS
Related business
Manufacturer
SpaceX/Seattle
Mission
Operational Commercial Communications
Bus & Motor
STARLINK V2MO, Unknown motor
Mass
575 kg wet, ~530 kg dry
Launch date (UTC)
2025-12-02 (7 months ago)
Launch vehicle
FALCON 9
Launch site
Air Force Eastern Test Range (AFETR)
Object type
Payload
Rocket body
Debris
Shape & HBR
Box + 2 Pan, 17.7 m
Radar Cross Section
36.964 m², Large (>1 m²)

Expand to show TLE details & history
Last TLE update: 15 hours ago

TLE from 15 hours ago
0 STARLINK-35702
1 66876U 25281AE  26171.20040678  .00011342  00000-0  42084-3 0  9997
2 66876  43.0052 124.5024 0002513 249.6317 110.4264 15.27596903 31852
Epoch: 2026-06-20T04:48Z
TLE epoch observation values (Epoch: 2026-06-20T04:48:35.145Z)
Latitude
-0.00009°
Longitude
143.93742°
Altitude
483.377 km
Speed
7.625 km/s
True Right ascension
08h 18m 00s
True Declination
0° 00' 00"
Sunlit
Object was in daylight at epoch
Visualization orbit readout
Latitude
Unknown
Longitude
Unknown
Altitude
Unknown
Speed
Unknown
Apparent Right ascension
Unknown
Apparent Declination
Unknown
Sunlit
N/A
Visualization observer readout
Local Sidereal Time
07:12:39
Azimuth
Unknown
Elevation
Unknown
Doppler factor
Unknown
Orbital elements
Apogee altitude
486.667 km
Perigee altitude
483.218 km
Semi-major axis
6,863.08 km
Eccentricity
0.00025
Inclination
43.0052°
RAAN
124.5024°
Arg. of periapsis
249.6317°
True anomaly
110.45338°
Mean anomaly
110.4264°
Eccentric anomaly
110.43989°
Mean motion
3.81737 °/min
Orbital period
94.31 mins
BSTAR
0.00042084
Loading maneuver chart data...
Computing Atmospheric mass density...
Loading historical data...
Loading historical data...
Loading historical data...
Loading historical data...
Loading historical data...
Loading historical data...
Loading historical data...

Documentation

Showing up to 5 results
|